COSMOS 2251 DEB, 38067

Orbit data source: Space-Track

COSMOS 2251 DEB, 38067 is space debris in LEO originally from a launch on Wed, 16 Jun 1993 UTC launched from the Plesetsk Missile And Space Complex (PKMTR). The debris from Iridium 33, an American commercial communications satellite, has been tracked extensively since its accidental collision with the defunct Russian satellite Cosmos 2251 in 2009. This event, occurring at high speed in low Earth orbit (LEO), generated thousands of pieces of space debris, significantly increasing the risk of further collisions. The Iridium 33 debris cloud has impacted space traffic management and orbital debris mitigation strategies, making it a subject of ongoing study in space situational awareness.

Loading next visibility...
Identifier
38067, 1993-036BRZ
Orbit
LEO
Country
Flag of CISCIS
Related business
Manufacturer
Unknown
Mission
Spacecraft
Bus & Motor
Unknown
Mass
Unknown
Launch date (UTC)
1993-06-16 (33 years ago)
Launch vehicle
Unknown
Launch site
Plesetsk Missile And Space Complex (PKMTR)
Object type
Payload
Rocket body
Debris
Shape & HBR
Unknown shape, 0.1 m
Radar Cross Section
Small (<0.1 m²)

Expand to show TLE details & history
Last TLE update: 8 hours ago

TLE from 8 hours ago
0 COSMOS 2251 DEB
1 38067U 93036BRZ 26123.42169352  .00001414  00000-0  28076-3 0  9997
2 38067  74.0169   3.2034 0069781 116.8497  62.2124 14.61615474646251
Epoch: 2026-05-03T10:07Z
TLE epoch observation values (Epoch: 2026-05-03T10:07:14.320Z)
Latitude
0.10721°
Longitude
170.03771°
Altitude
667.869 km
Speed
7.535 km/s
True Right ascension
12h 12m 41s
True Declination
0° 06' 24"
Sunlit
Object was in full shadow at epoch
Visualization orbit readout
Latitude
Unknown
Longitude
Unknown
Altitude
Unknown
Speed
Unknown
Apparent Right ascension
Unknown
Apparent Declination
Unknown
Sunlit
N/A
Visualization observer readout
Local Sidereal Time
01:40:18
Azimuth
Unknown
Elevation
Unknown
Doppler factor
Unknown
Orbital elements
Apogee altitude
734.851 km
Perigee altitude
636.269 km
Semi-major axis
7,063.697 km
Eccentricity
0.00698
Inclination
74.0169°
RAAN
3.2034°
Arg. of periapsis
116.8497°
True anomaly
62.92269°
Mean anomaly
62.2124°
Eccentric anomaly
62.56726°
Mean motion
3.65591 °/min
Orbital period
98.47 mins
BSTAR
0.00028076

Documentation

Showing up to 5 results
|